Doha, Qatar

11:02 PM +03 on March 30, 2017 (GMT +0300)
Doha International

Weather History for OTBD - August, 2013

Change the Weather History Date:

Thursday, August 29, 2013

  Actual Average Record
Temperature  
Mean Temperature 93 °F -  
Max Temperature 99 °F 101 °F 113 °F (2003)
Min Temperature 87 °F 80 °F 84 °F (1997)
Cooling Degree Days 28    
Growing Degree Days 43 (Base 50)    
Moisture  
Dew Point 81 °F    
Average Humidity 68    
Maximum Humidity 89    
Minimum Humidity 52    
Precipitation  
Precipitation 0.00 in 0.00 in - ()
Sea Level Pressure  
Sea Level Pressure 29.61 in    
Wind  
Wind Speed 5 mph ()    
Max Wind Speed 10 mph    
Max Gust Speed -    
Visibility 4.7 miles    
Events      
Averages and records for this station are not official NWS values.
T = Trace of Precipitation, MM = Missing Value Source: Averaged Metar Reports

Daily Weather History Graph

Daily Weather History Graph

Search for Another Location

Airport or City:

Trip Planner

Search our weather history database for the weather conditions in past years. The results will help you decide how hot, cold, wet, or windy it might be!

Date:

Astronomy

Aug. 29, 2013 Rise Set
Actual Time 5:13 AM +03 5:55 PM +03
Civil Twilight 4:49 AM +03 6:19 PM +03
Nautical Twilight 4:22 AM +03 6:46 PM +03
Astronomical Twilight 3:54 AM +03 7:14 PM +03
Moon 11:51 PM +03 (8/29) 12:47 PM +03 (8/29)
Length of Visible Light 13h 29m
Length of Day
12h 42m
Last Quarter, 41% of the Moon is Illuminated
Aug 29
Last Quarter
Sep 5
New
Sep 12
First Quarter
Sep 19
Full
Sep 27
Last Quarter

Hourly Weather History & Observations

Time (+03) Temp. Heat Index Dew Point Humidity Pressure Visibility Wind Dir Wind Speed Gust Speed Precip Events Conditions
12:00 AM 89.6 °F 104.7 °F 78.8 °F 70% 29.59 in - North 4.6 mph - N/A   Clear
12:30 AM 89.6 °F 108.2 °F 80.6 °F 75% 29.59 in - North 3.5 mph - N/A   Clear
1:00 AM 89.6 °F 104.7 °F 78.8 °F 70% 29.56 in - North 3.5 mph - N/A   Clear
1:30 AM 89.6 °F 104.7 °F 78.8 °F 70% 29.56 in - NNE 4.6 mph - N/A   Clear
2:00 AM 91.4 °F 107.2 °F 78.8 °F 66% 29.56 in - North 4.6 mph - N/A   Clear
2:30 AM 89.6 °F 104.7 °F 78.8 °F 70% 29.56 in - NNE 3.5 mph - N/A   Clear
3:00 AM 90 °F - 80 °F 66% 29.58 in 7 mi NE 3.5 mph - -  
3:00 AM 89.6 °F 108.2 °F 80.6 °F 75% 29.56 in - NE 3.5 mph - N/A   Clear
3:30 AM 89.6 °F 108.2 °F 80.6 °F 75% 29.56 in - NNE 2.3 mph - N/A   Clear
4:00 AM 89.6 °F 108.2 °F 80.6 °F 75% 29.56 in - Variable 2.3 mph - N/A   Clear
4:30 AM 87.8 °F 111.7 °F 84.2 °F 89% 29.59 in - Variable 2.3 mph - N/A   Clear
5:00 AM 89.6 °F 108.2 °F 80.6 °F 75% 29.59 in - NE 3.5 mph - N/A   Clear
5:30 AM 87.8 °F 104.9 °F 80.6 °F 79% 29.59 in 5.6 mi North 3.5 mph - N/A   Unknown
6:00 AM 87.8 °F 104.9 °F 80.6 °F 79% 29.59 in 5.6 mi North 4.6 mph - N/A   Unknown
6:30 AM 89.6 °F 111.1 °F 82.4 °F 79% 29.62 in 5.6 mi Variable 2.3 mph - N/A   Unknown
7:00 AM 91.4 °F 114.3 °F 82.4 °F 75% 29.62 in 5.0 mi Calm Calm - N/A   Unknown
7:30 AM 93.2 °F 110.2 °F 78.8 °F 63% 29.62 in 5.0 mi Variable 2.3 mph - N/A   Unknown
8:00 AM 93.2 °F 117.1 °F 82.4 °F 71% 29.65 in 5.0 mi Variable 2.3 mph - N/A   Unknown
9:00 AM 95 °F - 82 °F 58% 29.66 in 5 mi 2.3 mph - -   Haze
9:00 AM 95.0 °F 119.6 °F 82.4 °F 67% 29.65 in 5.0 mi Variable 2.3 mph - N/A   Partly Cloudy
10:00 AM 96.8 °F 118.6 °F 80.6 °F 60% 29.65 in 4.3 mi ENE 4.6 mph - N/A   Partly Cloudy
11:00 AM 98.6 °F 120.3 °F 80.6 °F 56% 29.65 in 4.3 mi East 6.9 mph - N/A   Partly Cloudy
12:00 PM 98.6 °F 120.3 °F 80.6 °F 56% 29.62 in 4.3 mi ENE 6.9 mph - N/A   Partly Cloudy
1:00 PM 98.6 °F 117.2 °F 78.8 °F 53% 29.62 in 4.3 mi NE 9.2 mph - N/A   Unknown
2:00 PM 98.6 °F 117.2 °F 78.8 °F 53% 29.59 in 4.3 mi NE 10.4 mph - N/A   Unknown
2:30 PM 96.8 °F 118.6 °F 80.6 °F 60% 29.59 in 4.3 mi ENE 10.4 mph - N/A   Unknown
3:00 PM 97 °F - 81 °F 52% 29.61 in 4 mi ENE 10.4 mph - -   Haze
3:00 PM 96.8 °F 118.6 °F 80.6 °F 60% 29.59 in 4.3 mi ENE 10.4 mph - N/A   Unknown
3:30 PM 96.8 °F 121.7 °F 82.4 °F 63% 29.59 in 4.3 mi ENE 10.4 mph - N/A   Unknown
4:00 PM 96.8 °F 121.7 °F 82.4 °F 63% 29.59 in 4.3 mi NE 10.4 mph - N/A   Unknown
4:30 PM 95.0 °F 119.6 °F 82.4 °F 67% 29.59 in 4.3 mi NE 10.4 mph - N/A   Unknown
5:00 PM 95.0 °F 119.6 °F 82.4 °F 67% 29.59 in 4.3 mi NE 10.4 mph - N/A   Unknown
5:30 PM 95.0 °F 119.6 °F 82.4 °F 67% 29.59 in 4.3 mi NE 9.2 mph - N/A   Unknown
6:00 PM 93.2 °F 117.1 °F 82.4 °F 71% 29.62 in 4.3 mi NE 8.1 mph - N/A   Unknown
6:30 PM 93.2 °F 113.6 °F 80.6 °F 67% 29.62 in 4.3 mi NE 8.1 mph - N/A   Unknown
7:00 PM 93.2 °F 113.6 °F 80.6 °F 67% 29.62 in 4.3 mi NE 8.1 mph - N/A   Unknown
7:30 PM 93.2 °F 117.1 °F 82.4 °F 71% 29.62 in 4.3 mi NE 6.9 mph - N/A   Unknown
8:00 PM 93.2 °F 117.1 °F 82.4 °F 71% 29.65 in 4.3 mi ENE 6.9 mph - N/A   Unknown
8:30 PM 91.4 °F 114.3 °F 82.4 °F 75% 29.62 in 5.0 mi NE 5.8 mph - N/A   Unknown
9:00 PM 92 °F - 83 °F 68% 29.65 in 5 mi NE 6.9 mph - -   Haze
9:00 PM 91.4 °F 114.3 °F 82.4 °F 75% 29.65 in 5.0 mi NE 6.9 mph - N/A   Unknown
10:00 PM 91.4 °F 114.3 °F 82.4 °F 75% 29.65 in 5.0 mi NNE 5.8 mph - N/A   Unknown
11:00 PM 89.6 °F 111.1 °F 82.4 °F 79% 29.62 in 5.0 mi NNE 4.6 mph - N/A   Unknown